Погода в Котельникове

Россия / Курская область     51°17′53″N   36°18′41″E
В апреле 2022 года жителям России запретили посещать сайт meteo.paraplan.net по решению Генеральной прокуратуры. Аудитория сайта уменьшилась в 10 раз. Владельцы сайта не видят смысла в поддержке погодного сервера в таких условиях. Сайт будет закрыт в октябре.
темп.,
°C
ветер,
м/с
пор.,
м/с
влажн.,
%
обл.,
%
осадки,
мм/ч
давл.,
гПа
погр.,
м
29 сентября, чт
чт2900:00+13з2388100 0.1 100474
03:00+11з23936 0.1 100639
06:00+10юз349575 0.0 100891
09:00+13зюз358655 0.0 1009338
12:00+16зюз346843 0.0 1011877
15:00+17зюз3458100 0.0 10111065
18:00+15зсз1169100 0.0 101210
21:00+13вюв2276100 0.0 101423
30 сентября, пт
пт3000:00+12юв3685100 0.0 101494
03:00+12юв388982 0.0 1014163
06:00+12ююв3888100 0.0 1015144
09:00+13ююв2587100 0.4 1015122
12:00+18ююв4869100 0.2 1016518
15:00+21ю685989 0.2 10151187
18:00+16ю378799 2.4 1015136
21:00+15ю3684100 3.4 101687
1 октября, сб
сб100:00+14ююз3391100 0.1 101660
03:00+14ююз2395100 0.3 101648
06:00+14юз229684 0.0 101637
09:00+16юз24894 0.0 1017212
12:00+20юз5767100 0.0 1016814
15:00+20юз5865100 0.0 1015970
18:00+18ююз3578100 0.0 101488
21:00+17ююз398386 0.8 1013236
2 октября, вс
вс200:00+15юз3691100 0.4 1012154
03:00+14юз229532 1.1 101261
06:00+13з229695 0.1 101125
09:00+15всв118896 0.1 1010153
12:00+17ююв3584100 0.3 1009519
15:00+17ю5886100 0.7 1008608
18:00+15ююв4894100 0.6 1006328
21:00+14ююв3898100 4.6 1005365
3 октября, пн
пн300:00+14юв2498100 6.8 1003254
03:00+13ссв5798100 12.9 1000348
06:00+13св1595100 7.5 997387
09:00+10ссз81197100 24.8 995524
12:00+9сз101592100 7.2 996625
15:00+9зсз81390100 7.5 9991030
18:00+10ююз111688100 0.0 9931268
21:00+9ююз101788100 0.4 9991509